Total_Precipitation_Accumulation
0.30 0.33 0.70 0.82 0.85 0.92 0.89 0.87 0.88 0.86 0.85 0.90 0.94 0.95 0.96 0.91 0.90 0.89 0.90 0.82 0.83 0.89 1.02 1.12 1.12 1.08 1.00 0.89 0.76 0.69 0.66 0.65 0.64 0.65 0.73 0.81 0.83 0.77 0.72 0.70 0.73 0.82 1.07
0.25 0.30 0.58 0.70 0.81 0.87 0.85 0.86 0.82 0.75 0.80 0.86 0.87 0.88 0.93 0.96 0.95 0.98 0.97 0.89 0.92 1.00 1.06 1.15 1.09 1.01 0.91 0.89 0.80 0.67 0.61 0.57 0.50 0.45 0.45 0.52 0.67 0.71 0.70 0.68 0.70 0.86 0.96
0.21 0.26 0.46 0.66 0.79 0.88 0.88 0.86 0.82 0.75 0.82 0.85 0.85 0.89 0.97 1.02 1.00 1.05 0.98 0.96 1.00 1.06 1.07 1.09 1.05 0.98 0.88 0.84 0.86 0.73 0.63 0.53 0.45 0.38 0.34 0.36 0.56 0.72 0.68 0.66 0.71 0.89 0.95
0.18 0.23 0.37 0.63 0.79 0.90 0.92 0.91 0.88 0.88 0.87 0.87 0.84 0.89 0.98 1.05 1.10 1.06 0.97 0.98 1.04 1.10 1.10 1.06 1.00 0.96 0.89 0.81 0.79 0.72 0.72 0.59 0.44 0.34 0.28 0.33 0.55 0.81 0.80 0.78 0.77 0.84 0.91
0.20 0.25 0.41 0.69 0.83 0.90 0.93 0.91 0.90 0.92 0.90 0.90 0.88 0.94 1.09 1.11 1.11 1.03 0.96 0.93 0.98 1.09 1.16 1.10 0.94 0.89 0.85 0.80 0.73 0.72 0.74 0.64 0.45 0.31 0.26 0.31 0.50 0.87 0.84 0.83 0.81 0.83 0.84
0.26 0.30 0.46 0.69 0.85 0.93 0.94 0.94 0.94 0.94 0.93 0.95 0.96 1.00 1.10 1.10 1.11 1.06 0.98 0.91 0.89 0.94 1.02 1.02 0.94 0.89 0.84 0.75 0.66 0.71 0.80 0.70 0.41 0.30 0.31 0.34 0.46 0.85 0.95 0.92 0.87 0.86 0.86
0.31 0.38 0.52 0.81 0.94 1.02 1.04 0.98 0.96 0.95 0.98 1.02 1.07 1.10 1.13 1.11 1.10 1.07 1.01 0.93 0.88 0.84 0.88 0.95 0.94 0.91 0.87 0.76 0.68 0.74 0.82 0.66 0.36 0.35 0.37 0.39 0.50 0.95 1.24 1.16 0.97 0.88 0.86
0.33 0.46 0.60 0.91 1.07 1.15 1.12 1.09 1.07 1.06 1.11 1.16 1.17 1.20 1.20 1.12 1.05 1.02 1.02 0.93 0.86 0.79 0.76 0.80 0.84 0.83 0.82 0.76 0.73 0.72 0.71 0.50 0.32 0.32 0.35 0.37 0.56 1.07 1.33 1.29 1.12 0.98 0.90
0.44 0.55 0.68 0.88 1.07 1.24 1.23 1.17 1.20 1.18 1.19 1.26 1.28 1.25 1.20 1.12 1.07 1.06 1.01 0.93 0.87 0.83 0.76 0.73 0.74 0.73 0.70 0.68 0.70 0.66 0.54 0.37 0.28 0.35 0.34 0.38 0.56 1.09 1.35 1.36 1.25 1.09 0.96
0.59 0.74 0.83 0.94 1.05 1.18 1.25 1.25 1.22 1.22 1.24 1.29 1.32 1.25 1.15 1.13 1.11 1.06 0.96 0.91 0.92 0.92 0.86 0.78 0.74 0.71 0.64 0.59 0.57 0.51 0.39 0.31 0.23 0.32 0.42 0.42 0.53 1.01 1.30 1.31 1.25 1.20 1.04
0.73 0.88 1.01 1.08 1.14 1.23 1.28 1.27 1.41 1.46 1.47 1.46 1.39 1.33 1.29 1.24 1.16 1.02 0.88 0.86 0.94 0.97 0.89 0.83 0.79 0.73 0.68 0.57 0.49 0.42 0.35 0.25 0.25 0.35 0.41 0.46 0.66 1.13 1.42 1.39 1.35 1.27 1.13
0.76 0.88 1.03 1.13 1.19 1.31 1.38 1.47 1.61 1.67 1.65 1.58 1.36 1.29 1.31 1.21 1.14 1.01 0.93 0.90 0.94 0.95 0.91 0.86 0.84 0.83 0.78 0.61 0.56 0.49 0.36 0.26 0.25 0.26 0.32 0.40 0.69 1.19 1.50 1.50 1.50 1.41 1.28
0.73 0.86 1.00 1.16 1.33 1.43 1.46 1.58 1.64 1.68 1.66 1.63 1.50 1.37 1.31 1.32 1.26 1.18 1.09 1.07 1.07 1.01 1.00 0.97 0.98 0.89 0.80 0.70 0.66 0.56 0.41 0.34 0.29 0.24 0.24 0.32 0.52 0.93 1.34 1.51 1.56 1.58 1.57
0.76 0.87 1.02 1.22 1.38 1.45 1.48 1.58 1.63 1.57 1.49 1.45 1.41 1.43 1.43 1.39 1.29 1.21 1.16 1.14 1.17 1.10 1.04 1.01 0.95 0.88 0.78 0.71 0.67 0.62 0.54 0.50 0.39 0.31 0.24 0.27 0.36 0.56 0.91 1.26 1.53 1.67 1.77
0.80 0.90 1.09 1.29 1.42 1.52 1.57 1.65 1.64 1.55 1.45 1.44 1.39 1.40 1.37 1.27 1.19 1.08 1.05 1.07 0.99 0.95 0.92 0.91 0.90 0.86 0.78 0.74 0.69 0.62 0.57 0.56 0.48 0.41 0.34 0.34 0.34 0.43 0.62 0.94 1.30 1.62 1.84
0.86 0.97 1.17 1.36 1.53 1.66 1.62 1.64 1.62 1.58 1.57 1.63 1.56 1.37 1.33 1.26 1.18 1.13 1.05 1.02 0.96 0.88 0.83 0.83 0.80 0.82 0.80 0.73 0.67 0.58 0.53 0.52 0.50 0.46 0.44 0.45 0.40 0.40 0.52 0.76 1.04 1.36 1.74
0.95 1.09 1.25 1.39 1.62 1.77 1.74 1.72 1.70 1.69 1.67 1.64 1.67 1.62 1.46 1.34 1.27 1.23 1.15 1.04 1.01 0.98 0.96 0.92 0.89 0.87 0.82 0.76 0.70 0.63 0.55 0.50 0.49 0.50 0.50 0.50 0.49 0.47 0.53 0.70 0.87 1.11 1.54
1.10 1.23 1.35 1.51 1.68 1.81 1.86 1.86 1.80 1.76 1.80 1.73 1.72 1.78 1.77 1.58 1.40 1.32 1.25 1.15 1.12 1.15 1.13 1.08 1.00 0.96 0.89 0.79 0.72 0.68 0.62 0.54 0.47 0.48 0.52 0.52 0.50 0.50 0.54 0.61 0.76 0.99 1.31
1.15 1.31 1.42 1.56 1.74 1.90 1.99 2.00 1.98 1.87 1.86 1.86 1.83 1.80 1.86 1.89 1.69 1.48 1.36 1.32 1.33 1.34 1.27 1.18 1.10 0.99 0.93 0.85 0.78 0.72 0.65 0.58 0.52 0.51 0.49 0.51 0.53 0.51 0.53 0.56 0.62 0.76 1.01
1.14 1.33 1.50 1.64 1.80 1.98 2.17 2.20 2.20 2.11 1.94 1.90 1.90 1.79 1.75 1.83 1.87 1.73 1.56 1.48 1.48 1.49 1.44 1.32 1.20 1.12 1.04 1.02 0.97 0.87 0.74 0.65 0.60 0.55 0.51 0.52 0.54 0.53 0.52 0.57 0.62 0.62 0.71
1.15 1.31 1.45 1.57 1.72 1.94 2.10 2.17 2.16 2.10 1.95 1.88 1.83 1.78 1.76 1.80 1.86 1.84 1.65 1.57 1.46 1.42 1.38 1.34 1.30 1.27 1.21 1.20 1.31 1.21 1.02 0.86 0.76 0.68 0.62 0.60 0.59 0.61 0.67 0.71 0.76 0.73 0.70
1.02 1.17 1.41 1.56 1.65 1.83 1.98 2.01 2.11 2.09 2.01 1.91 1.84 1.80 1.73 1.74 1.84 1.93 1.84 1.72 1.65 1.55 1.50 1.50 1.47 1.43 1.37 1.28 1.38 1.48 1.35 1.21 0.98 0.76 0.70 0.65 0.67 0.72 0.81 0.85 0.89 0.88 0.84
0.91 1.04 1.25 1.53 1.69 1.76 1.97 2.23 2.42 2.48 2.31 2.16 1.98 1.83 1.72 1.69 1.73 1.86 1.94 1.90 1.86 1.81 1.71 1.58 1.55 1.53 1.54 1.42 1.33 1.61 1.63 1.28 0.96 0.78 0.67 0.61 0.61 0.64 0.65 0.70 0.75 0.80 0.89
0.86 1.03 1.20 1.32 1.59 1.83 1.96 2.20 2.43 2.53 2.35 2.02 1.89 1.85 1.80 1.74 1.73 1.77 1.84 1.87 1.86 1.83 1.76 1.64 1.54 1.48 1.56 1.60 1.45 1.30 1.26 1.20 1.20 0.99 0.74 0.62 0.60 0.61 0.58 0.57 0.59 0.64 0.76
0.85 1.02 1.19 1.29 1.47 1.76 1.96 2.08 2.35 2.50 2.39 2.21 2.07 1.94 1.83 1.80 1.78 1.74 1.75 1.81 1.85 1.83 1.79 1.72 1.66 1.66 1.65 1.63 1.56 1.40 1.22 1.07 1.05 1.15 0.96 0.76 0.70 0.67 0.63 0.60 0.60 0.59 0.61
0.82 0.95 1.15 1.31 1.37 1.62 1.87 2.05 2.21 2.43 2.54 2.43 2.28 2.15 1.98 1.89 1.84 1.77 1.68 1.71 1.81 1.84 1.83 1.83 1.80 1.78 1.80 1.71 1.59 1.51 1.50 1.48 1.27 1.19 1.07 0.83 0.78 0.74 0.72 0.70 0.68 0.66 0.63